Wind_Speed
6 7 8 9 10 11 11 11 12 13 13 14 14 15 15 15 16 16 16 17 17 17 17 17 17 16 16 15 15 14 14 14 14 14 14 14 14 14 14 14 13 12 11 9 8 8 6 5 6 7 8 11 13 13 12 10 8 8 8 8 9 10 11 13 12 9 10 13 15 17 15 13 11 9 9 8 7 7 10 15 14 10 9 7 5 5 6 7
7 8 9 10 11 12 12 13 13 14 15 15 16 17 17 18 18 18 18 18 18 18 18 18 18 18 18 17 17 16 16 16 15 15 16 16 16 16 15 15 15 14 13 11 9 9 7 6 7 7 9 11 14 15 13 10 9 8 8 9 10 10 12 15 13 10 14 16 19 19 16 15 12 9 10 7 7 8 9 14 15 12 10 9 6 5 6 6
8 9 10 11 12 13 14 15 16 16 16 17 18 18 19 19 20 20 20 20 20 20 20 20 20 19 19 19 18 18 18 17 17 17 17 17 17 17 17 17 17 16 15 13 12 10 8 8 8 9 10 12 14 15 14 11 10 9 9 10 11 10 13 17 12 15 22 20 21 20 17 17 13 10 10 7 8 8 6 9 14 13 12 10 6 5 6 5
10 10 11 11 12 13 14 15 16 18 18 18 19 19 20 20 21 21 21 21 21 21 21 21 21 21 20 20 20 20 19 19 19 19 18 18 18 18 19 19 19 17 17 16 15 12 9 9 10 10 12 14 15 15 14 12 12 11 10 10 11 11 14 14 9 21 27 22 22 21 18 18 14 12 10 8 8 10 8 7 10 11 12 12 8 6 6 4
12 12 12 13 13 13 14 15 16 17 18 19 19 20 20 21 21 22 22 22 22 22 22 22 22 22 22 21 21 21 21 21 20 20 20 20 20 20 20 21 20 19 19 19 17 14 12 12 11 12 14 15 15 15 14 13 13 12 11 9 9 10 12 12 4 21 24 19 22 21 19 19 16 13 10 8 7 9 9 9 10 8 9 12 10 8 7 5
14 14 14 14 14 15 15 16 17 17 18 19 20 20 21 22 22 22 23 23 23 23 23 23 23 22 22 22 23 23 23 23 22 22 22 22 22 22 22 22 22 21 21 21 19 17 16 14 13 14 15 16 16 15 14 13 13 13 12 9 8 8 9 8 4 17 17 16 21 21 18 19 16 14 11 9 8 8 8 9 11 7 6 10 11 9 8 6
15 16 16 16 16 16 16 17 18 18 19 20 21 21 22 22 22 23 23 23 23 23 23 23 24 23 24 24 24 24 25 25 25 24 24 24 24 24 24 24 24 24 23 22 21 20 18 15 15 16 17 18 17 16 15 13 12 13 12 10 6 6 7 4 4 10 11 15 19 18 18 18 16 15 12 10 10 10 8 9 11 9 7 9 10 10 8 6
17 17 17 17 17 17 18 18 19 19 20 21 22 22 22 22 22 22 22 23 23 23 23 24 24 24 25 25 25 25 26 26 27 27 26 26 27 27 27 26 25 26 25 24 23 22 20 18 17 18 19 19 18 17 15 13 12 12 13 11 6 5 6 5 4 7 10 15 16 17 19 17 15 15 14 12 12 11 9 9 11 12 10 10 10 10 8 7
18 18 18 18 18 18 18 19 20 20 21 22 23 23 23 23 22 22 22 23 23 23 24 24 24 25 25 25 26 26 26 27 27 27 27 28 28 28 28 28 27 27 27 25 24 24 22 22 21 21 22 20 18 17 15 13 13 13 13 11 7 5 6 6 6 7 10 16 17 18 19 17 15 15 13 12 12 12 10 8 11 13 13 11 10 9 8 7
19 18 18 18 18 18 19 20 21 21 22 23 23 24 24 23 23 22 22 23 23 23 23 24 24 24 25 25 25 26 26 27 27 27 27 28 28 29 29 29 29 29 28 27 27 27 27 27 26 24 22 19 18 17 16 15 14 13 13 11 9 8 8 8 9 9 10 18 19 19 20 17 16 14 11 12 12 11 10 8 10 14 14 13 11 9 8 7
20 19 19 19 19 19 19 20 21 22 23 24 24 24 24 24 23 23 23 23 23 23 23 23 23 24 24 24 24 25 26 26 27 27 27 27 28 28 29 30 30 30 29 29 30 31 31 30 28 25 22 20 20 18 17 17 15 13 13 11 10 11 10 10 11 10 10 18 19 20 21 18 17 15 12 13 12 11 11 9 10 14 15 13 13 11 9 7
21 20 19 19 19 19 20 20 22 23 24 25 25 25 25 24 23 23 23 22 22 22 23 23 23 23 24 23 24 24 25 25 26 26 26 26 26 27 28 30 31 30 30 31 32 33 33 31 30 27 24 21 21 19 18 18 15 13 12 12 12 12 11 11 11 10 11 18 19 21 22 19 17 16 14 14 13 11 11 11 12 14 15 13 13 12 9 8
21 21 20 20 20 20 20 21 23 24 25 25 25 25 25 24 23 23 22 22 22 22 23 23 24 24 24 23 23 24 24 24 24 25 25 25 25 25 26 28 30 31 32 32 33 34 33 33 32 29 25 23 21 20 19 18 16 14 12 13 13 12 12 12 11 10 12 17 20 22 22 20 19 17 14 13 13 12 11 11 12 14 15 13 12 12 10 8
22 21 21 20 20 20 21 22 23 24 25 26 25 25 24 23 23 22 22 22 22 23 23 24 24 24 24 23 23 23 23 23 24 24 24 24 25 25 26 27 29 31 32 34 34 33 34 34 33 30 27 24 22 21 19 18 16 15 13 14 13 12 13 12 10 10 13 18 21 22 23 21 21 17 14 13 14 14 13 11 11 13 14 13 12 12 11 9
23 22 21 21 21 21 21 22 24 25 26 26 25 24 23 23 22 22 22 22 23 23 24 24 24 24 24 24 23 23 23 23 24 24 23 24 24 25 26 27 28 30 32 34 34 33 34 34 33 31 29 25 23 22 20 18 17 16 14 14 13 13 13 12 10 9 12 19 23 23 23 23 22 18 13 14 14 14 14 13 12 12 14 14 13 12 11 9
24 23 22 22 21 21 22 23 24 25 26 25 24 23 23 22 22 22 22 22 23 24 24 25 24 25 25 24 23 23 23 23 25 25 24 23 24 24 25 26 27 29 32 33 32 33 33 34 33 32 29 26 24 23 22 20 17 16 15 14 13 13 13 12 11 9 11 18 23 21 21 22 21 18 15 15 15 13 14 14 13 13 13 14 13 13 12 10
24 23 22 22 22 22 22 23 24 25 25 24 24 23 22 22 22 22 22 23 23 24 25 25 25 25 25 25 25 24 23 22 24 25 24 23 23 24 25 26 28 29 31 31 31 31 32 33 34 32 29 27 26 24 22 19 18 17 16 15 14 14 13 11 9 10 10 14 20 21 22 21 20 19 17 16 16 14 14 15 15 14 13 14 14 14 13 11
23 23 22 22 22 22 22 23 25 25 24 24 23 22 22 22 22 22 23 23 24 25 25 25 26 26 25 25 25 25 24 23 23 23 23 23 22 23 24 25 27 28 29 29 28 29 30 33 34 33 30 27 25 22 20 21 21 20 19 17 16 15 15 12 9 10 11 14 18 22 23 21 21 21 19 18 17 16 15 15 17 16 15 15 15 15 14 12
23 22 22 22 22 22 23 24 24 24 23 23 22 22 22 22 22 23 23 24 25 25 25 25 25 25 25 25 24 24 23 22 21 21 22 21 21 21 22 23 25 26 26 26 26 27 29 32 33 31 28 24 21 20 22 24 24 21 19 18 18 17 16 14 10 9 11 15 18 22 24 20 18 18 17 18 18 16 15 15 17 17 15 15 16 15 14 13
22 22 22 22 22 22 23 23 23 23 22 22 21 21 21 22 22 23 23 24 24 25 24 24 24 24 24 23 22 21 20 19 19 20 21 20 20 19 20 21 23 24 24 24 25 25 28 30 30 26 23 22 22 24 27 27 24 22 20 19 20 19 17 16 12 9 10 14 16 19 24 20 17 16 15 18 20 16 15 15 16 17 16 15 16 15 15 13
22 22 22 22 22 22 23 23 22 22 22 21 21 21 22 22 23 24 24 25 24 24 23 22 22 21 20 20 19 18 17 16 16 19 20 20 19 19 20 20 21 23 22 22 23 23 25 25 23 22 24 26 27 29 30 28 25 24 21 20 21 20 18 17 15 12 11 14 16 17 22 21 18 18 17 19 22 18 16 16 17 18 17 16 16 15 14 14
21 22 21 21 21 21 22 21 21 21 21 21 21 22 23 23 23 24 25 25 24 24 23 22 21 19 17 17 16 15 14 13 13 16 18 19 20 20 20 19 20 21 21 20 20 20 20 19 21 24 28 30 30 31 31 28 26 24 22 22 22 21 20 18 18 15 12 13 17 18 20 21 19 20 19 20 23 21 18 18 18 19 18 16 16 15 14 14
21 21 21 20 20 20 20 20 20 20 20 20 21 22 22 22 23 23 24 24 24 24 23 21 20 18 16 15 15 14 13 12 11 11 14 17 18 19 19 19 19 20 19 18 17 17 17 19 25 30 31 32 32 31 32 30 26 25 24 23 23 23 21 20 20 17 12 12 16 17 19 20 20 21 20 21 24 23 20 19 19 19 19 19 18 17 16 15
21 21 20 19 19 19 19 19 19 19 19 20 20 21 21 21 22 22 22 23 23 23 22 20 18 16 15 15 15 14 12 11 9 9 10 12 15 17 18 18 18 18 18 17 16 16 17 22 29 32 33 34 33 33 34 32 29 26 26 25 25 24 23 22 21 18 15 12 13 17 19 20 21 22 21 22 25 25 22 20 20 20 20 20 20 19 18 17
20 20 19 18 18 18 18 19 19 19 19 20 20 20 19 19 19 20 20 21 21 21 20 18 17 16 16 16 15 13 11 9 8 8 8 10 13 16 17 18 17 17 17 16 16 16 19 25 30 31 33 34 34 35 35 34 31 28 27 26 25 24 24 24 22 19 18 14 11 15 18 20 22 24 23 23 25 25 23 21 20 20 19 19 20 19 18 18
20 19 18 18 17 17 18 18 19 19 19 20 20 19 18 17 17 17 18 18 18 19 18 16 16 16 15 15 15 14 11 9 8 8 8 10 12 13 15 17 17 17 17 17 17 18 22 26 30 31 33 35 35 36 35 35 34 30 28 27 26 25 25 26 24 20 20 17 13 14 16 17 20 25 26 24 26 26 24 22 21 21 19 18 20 19 18 19
19 18 18 17 17 17 18 18 19 19 19 19 19 18 17 17 16 15 15 16 16 16 17 16 15 15 15 14 13 12 9 8 8 8 9 10 11 12 14 16 18 18 18 18 18 21 24 28 30 31 33 35 35 34 33 34 34 31 29 29 28 28 27 27 26 22 20 19 17 15 15 15 14 20 26 26 27 27 23 21 22 21 19 20 20 19 19 20
19 18 18 17 17 17 18 18 19 19 19 19 19 18 17 16 15 14 13 14 14 14 15 15 15 17 16 13 10 9 8 7 7 8 9 10 11 12 15 17 19 19 19 18 19 23 28 31 31 33 34 35 33 31 31 34 33 31 30 29 28 28 27 27 27 23 19 17 18 19 19 16 10 12 25 29 27 27 24 20 21 21 20 20 21 20 19 20
19 18 18 18 17 17 18 18 18 19 19 19 18 18 17 16 14 13 12 11 12 13 15 15 15 16 16 13 8 6 7 6 6 7 8 10 11 12 15 17 18 19 18 17 20 25 29 31 32 33 34 33 30 28 31 34 33 32 31 30 29 27 26 26 26 24 20 16 16 18 20 20 16 10 18 28 27 26 25 22 21 23 23 21 21 21 20 20
20 19 18 18 18 18 18 18 18 19 19 18 18 17 16 14 13 12 11 10 11 14 15 14 13 12 13 13 7 5 6 6 6 6 7 10 13 13 14 15 16 17 16 16 20 26 28 30 32 31 30 30 28 29 33 35 34 33 31 30 29 28 25 24 24 23 20 16 16 17 16 19 21 14 11 19 24 25 27 25 23 24 25 24 23 22 21 20
20 20 19 19 18 18 18 18 18 18 18 18 17 16 15 14 13 12 11 11 12 13 13 13 12 11 11 10 7 6 7 6 6 6 6 9 13 15 14 14 14 14 14 15 20 24 26 28 29 27 27 28 29 31 33 33 34 33 31 30 29 27 25 22 22 22 20 16 17 18 17 17 18 18 14 12 17 25 29 28 26 25 25 24 24 23 22 21
20 20 20 19 19 18 18 18 18 18 18 17 17 16 15 14 13 12 12 12 13 12 13 14 14 11 9 6 5 7 8 7 6 5 5 9 13 15 15 15 15 15 14 16 20 23 24 26 25 25 27 29 30 31 32 33 34 33 32 31 30 28 26 21 19 21 20 16 15 16 19 17 14 18 20 13 12 21 30 31 29 27 27 26 25 24 24 23
20 19 19 20 20 19 18 18 18 17 17 17 17 16 15 14 13 13 12 12 12 13 14 15 16 13 8 4 3 6 7 6 5 4 4 8 12 15 16 15 15 16 16 17 21 22 23 24 23 24 26 29 30 31 32 32 33 33 32 30 29 27 24 20 19 20 19 15 13 13 16 16 15 17 18 15 13 17 27 33 32 30 28 28 28 27 26 25
20 19 19 19 20 19 18 17 17 17 16 16 16 15 14 14 13 13 13 12 12 14 15 15 16 14 7 4 2 5 7 7 5 5 4 7 11 14 16 16 16 17 18 20 22 23 23 23 23 24 27 28 30 29 29 29 30 32 30 26 26 25 22 20 20 18 16 14 12 12 13 14 16 16 14 14 14 15 24 34 35 32 31 30 32 32 29 27
20 19 18 18 19 19 18 17 17 16 16 15 14 13 13 13 13 13 13 13 13 15 16 16 16 12 5 5 3 4 8 8 6 5 5 7 11 14 16 17 18 19 20 22 25 26 26 25 24 26 28 29 30 30 29 29 30 30 29 25 25 26 24 21 19 17 15 13 12 11 12 12 14 15 14 13 12 12 20 33 38 35 33 32 32 33 32 29
19 19 18 18 19 18 18 17 16 16 15 15 14 12 11 12 12 12 12 12 13 14 16 17 17 12 4 4 3 3 6 7 5 4 5 8 12 16 18 19 20 20 21 23 25 27 28 26 26 27 28 29 31 31 30 30 29 27 27 26 25 26 26 23 21 18 15 13 12 11 11 12 13 14 15 14 12 10 12 24 36 37 34 33 31 31 32 30
19 19 18 17 18 18 18 17 16 16 15 15 14 11 10 11 11 12 12 12 13 15 16 17 17 12 6 5 4 2 4 6 6 5 7 9 14 18 20 21 21 21 21 23 24 26 27 26 27 29 28 28 30 29 28 28 28 26 25 26 27 27 26 24 22 17 14 13 12 11 11 11 11 13 14 14 13 11 9 14 26 35 35 32 30 30 32 31
18 18 18 17 17 17 17 17 17 16 15 15 14 11 10 10 10 11 12 13 13 15 17 16 14 11 8 7 6 4 4 7 7 8 9 11 15 19 21 22 22 22 23 25 24 25 28 27 27 30 29 27 27 27 26 28 29 28 28 28 29 28 26 24 20 15 13 13 12 10 9 8 9 10 12 13 13 11 11 11 15 24 32 33 31 29 31 31
18 18 18 18 18 17 17 17 16 16 15 15 15 12 10 9 9 10 12 13 13 15 16 13 10 10 8 7 7 5 5 6 7 8 9 11 16 20 22 23 24 24 26 27 26 26 29 27 26 30 30 27 28 28 27 29 31 30 29 29 30 27 24 22 20 17 15 14 13 10 8 6 6 8 10 12 12 10 11 13 12 16 24 32 33 29 29 31
19 18 18 18 18 17 17 16 16 15 14 15 15 14 11 10 9 9 11 12 13 14 14 10 8 9 9 8 7 6 6 7 8 9 10 10 16 21 24 24 25 27 28 27 27 27 30 29 27 29 30 29 29 29 27 27 29 29 26 26 28 26 22 21 20 19 16 14 13 11 9 6 4 5 7 9 11 11 10 12 14 14 19 29 35 32 30 31
19 19 18 18 18 17 16 16 15 15 14 15 15 15 13 11 10 10 11 11 12 14 13 9 8 9 9 9 7 7 8 9 9 11 12 10 15 23 25 26 26 28 28 26 26 28 31 31 28 28 31 30 28 29 28 25 25 27 24 23 27 26 22 20 17 15 15 14 13 12 10 7 5 5 6 7 10 12 11 12 13 14 17 27 36 35 32 32
21 20 19 18 18 17 16 15 15 15 15 14 14 14 14 13 12 11 11 11 12 13 11 8 9 9 10 10 9 8 10 9 9 10 11 9 14 23 26 26 26 29 28 26 27 29 32 33 29 28 31 32 30 28 28 26 24 27 26 24 26 26 20 18 16 14 15 15 13 13 12 9 8 7 6 7 9 11 12 12 13 13 15 26 37 38 34 34
21 21 20 19 18 16 15 15 14 15 14 12 11 13 14 15 14 12 12 12 13 14 11 9 10 10 10 10 10 10 10 9 8 8 8 7 11 21 25 25 26 28 29 29 29 31 33 34 30 27 30 33 29 25 25 26 25 25 26 24 25 26 20 17 17 15 15 15 15 15 14 11 10 10 9 9 10 11 12 14 14 14 15 24 38 41 37 36
22 22 22 20 18 16 15 14 14 14 13 10 10 12 15 16 15 14 14 13 15 16 14 12 12 10 10 11 10 11 11 9 8 6 6 5 8 18 25 25 24 27 30 30 31 32 34 34 31 27 29 30 26 23 23 26 25 24 22 21 23 26 22 18 17 15 15 15 15 15 14 13 12 11 11 11 10 11 13 14 15 17 17 23 35 41 39 38
22 21 22 22 19 17 15 15 14 14 12 10 10 12 14 16 16 15 14 14 15 15 13 13 13 11 11 11 11 11 11 10 9 7 7 5 5 10 20 26 25 26 29 31 32 33 34 35 34 29 27 26 25 24 23 22 24 25 23 21 21 22 22 19 18 16 15 14 13 13 13 13 13 12 11 10 10 11 12 14 15 18 20 24 33 39 40 40
23 21 21 22 21 18 16 15 14 14 12 10 11 12 13 15 16 15 13 14 14 13 11 12 12 10 10 11 11 11 11 12 11 9 9 7 4 4 9 21 26 25 26 30 32 34 34 35 35 31 27 25 24 25 23 20 23 26 25 24 22 21 21 22 20 18 16 14 13 13 13 13 13 13 10 8 8 9 10 12 13 16 20 25 33 39 40 40
23 21 20 21 21 19 17 16 15 14 13 12 12 12 12 14 15 14 13 14 14 12 11 12 11 10 10 10 10 10 11 12 12 10 11 10 7 4 1 10 19 22 24 25 27 32 36 35 33 30 28 26 25 25 23 22 23 25 26 26 25 23 23 23 21 20 18 16 14 12 12 13 12 12 9 7 7 8 9 9 9 11 18 25 32 38 39 39
23 21 20 20 20 19 18 16 16 16 15 14 13 13 12 12 13 14 13 13 13 12 11 11 10 9 9 8 8 10 11 12 12 11 12 12 11 9 5 4 8 12 17 21 23 25 32 35 33 29 28 28 27 27 25 25 24 23 26 29 28 26 25 23 22 21 20 17 14 12 12 13 12 11 9 7 7 7 7 6 5 6 14 24 32 36 38 38
22 21 20 20 19 19 19 17 17 17 17 16 14 13 12 12 12 13 13 12 12 12 11 10 8 8 8 7 7 8 10 11 13 13 13 13 13 13 12 9 6 3 5 13 19 22 27 34 34 30 28 29 30 30 28 27 26 25 27 30 32 30 27 26 24 22 20 18 15 14 14 14 13 11 10 9 8 7 6 4 4 6 13 24 33 35 34 33
21 20 19 19 19 20 20 18 17 18 18 16 15 14 13 12 12 13 12 12 12 11 11 10 9 9 9 8 7 8 9 11 13 14 13 13 13 14 14 14 12 7 3 3 10 17 23 32 37 35 31 31 32 31 28 26 24 27 32 34 34 32 29 28 26 22 20 19 16 15 15 15 13 12 11 10 8 8 6 4 5 4 9 17 25 28 28 29
20 19 19 19 19 20 20 19 18 19 19 16 15 15 14 13 13 13 12 12 11 10 9 8 8 9 9 9 8 8 9 11 13 15 15 14 14 14 14 13 14 11 5 2 2 7 14 25 36 38 34 32 31 27 27 25 19 20 31 38 37 35 32 29 27 23 21 20 18 16 16 15 14 13 13 12 9 9 8 6 6 6 7 10 13 17 20 22
20 19 19 20 20 21 21 20 19 19 19 17 15 16 15 14 14 14 13 12 11 9 9 8 8 8 9 10 11 9 10 11 13 15 16 16 16 16 15 14 14 13 10 7 3 1 6 17 30 35 34 34 31 21 21 27 21 14 24 34 35 35 33 30 28 25 23 22 20 19 19 17 15 14 14 13 11 10 10 9 7 7 7 7 8 9 12 14
Wind_Direction
301 297 295 296 296 298 299 300 301 300 298 295 294 291 289 288 286 284 283 282 280 280 279 279 279 278 275 273 271 269 267 266 264 263 263 263 264 265 265 267 270 270 266 260 259 261 260 250 240 242 249 256 259 263 267 273 279 283 298 301 303 309 312 318 308 268 209 186 181 172 156 141 135 130 121 120 131 135 134 126 119 121 124 120 112 113 111 107
306 300 295 294 293 294 296 297 297 297 297 295 294 291 289 287 285 283 281 280 279 277 276 275 275 274 274 272 270 269 268 266 264 263 263 263 264 264 263 263 264 265 266 263 258 256 253 248 240 237 242 251 258 261 264 267 271 276 284 287 292 304 312 311 298 244 205 189 181 172 158 151 147 140 128 129 141 140 148 137 131 134 130 121 116 119 109 106
317 310 304 300 297 296 296 296 295 294 294 293 293 292 291 289 286 284 282 280 278 276 274 272 271 270 270 269 268 268 267 267 265 264 262 263 263 263 261 261 261 263 265 263 257 253 246 241 238 237 239 246 254 258 262 264 267 272 275 280 286 303 317 309 283 213 196 188 180 169 158 158 155 144 132 137 148 141 157 150 142 145 137 125 124 127 110 106
325 320 316 311 308 304 301 299 296 295 294 293 293 293 292 290 288 286 284 281 279 276 274 271 269 268 267 266 266 267 267 266 266 265 263 262 262 261 259 258 259 259 261 260 258 254 245 240 239 239 239 244 250 255 259 261 263 266 268 277 287 308 322 314 263 200 189 180 178 169 158 162 157 149 147 158 164 147 150 155 150 156 147 134 136 134 114 108
326 323 320 316 313 310 306 303 300 298 297 296 295 294 292 291 289 288 286 283 280 277 275 272 269 267 266 265 265 265 266 266 265 264 263 261 260 259 258 257 257 256 256 257 257 254 246 240 239 240 241 244 248 251 253 255 257 260 263 273 291 315 331 329 245 187 180 170 175 171 161 164 159 156 159 167 173 150 153 160 154 166 159 144 147 143 125 117
325 323 320 317 313 310 307 304 302 301 300 298 297 296 294 293 291 289 287 284 281 278 276 273 271 269 267 267 266 266 266 267 265 263 262 261 260 258 256 255 254 253 252 253 254 252 246 241 239 240 244 247 247 247 250 250 252 258 261 270 293 320 337 346 138 164 168 165 172 171 166 168 161 156 161 166 166 149 158 166 149 160 174 150 148 142 129 122
323 321 319 316 312 309 307 305 304 304 302 302 300 299 298 296 294 291 288 284 281 278 277 275 273 272 270 269 269 268 267 267 265 263 262 260 259 258 256 254 252 251 249 249 250 249 247 242 238 239 243 246 247 247 250 251 252 256 260 264 287 320 328 335 156 166 176 175 176 175 170 171 165 158 164 169 162 150 159 170 152 154 168 153 148 142 133 125
321 319 317 314 312 310 307 305 305 304 303 303 304 303 301 299 296 293 289 285 282 280 278 277 276 275 274 273 272 270 268 267 265 263 261 259 258 257 256 254 251 249 248 247 247 247 247 243 239 238 240 243 245 246 248 249 250 254 260 261 267 296 307 302 237 220 206 189 185 183 176 174 169 163 170 170 163 156 158 173 161 154 158 155 153 147 138 125
318 316 314 312 311 309 306 304 304 304 304 304 305 305 304 301 298 294 290 287 285 282 280 279 278 276 275 275 273 272 270 268 266 264 262 260 258 257 256 255 252 250 247 245 244 244 243 241 237 235 236 240 243 245 246 245 246 250 256 259 259 261 276 283 266 258 231 203 190 186 182 180 174 168 174 171 163 159 156 172 169 157 157 159 154 147 138 122
316 315 312 311 310 307 304 303 304 304 304 305 305 306 305 302 299 296 292 289 286 284 282 281 280 279 278 277 276 274 271 269 267 265 262 259 257 255 254 253 252 250 247 243 241 240 239 238 236 234 234 237 241 243 243 242 241 243 248 253 255 252 257 267 273 285 249 210 192 183 183 185 182 175 174 170 164 161 159 173 175 162 159 159 152 146 140 125
315 313 311 310 308 306 303 303 304 305 306 306 307 306 305 303 300 297 294 291 289 287 285 284 284 283 281 280 278 275 272 269 268 266 264 261 257 254 252 252 251 249 246 242 240 239 239 240 239 237 235 234 238 239 239 241 239 239 244 246 247 248 251 263 276 292 254 213 195 185 185 188 186 181 175 169 168 169 167 173 175 166 161 161 154 148 145 132
313 312 310 309 307 304 303 303 305 306 307 308 308 307 306 304 301 299 296 295 293 291 289 289 288 286 284 281 278 276 273 270 269 266 265 263 260 256 252 250 249 248 246 243 241 241 241 241 239 238 235 232 235 236 238 241 241 238 241 243 245 248 253 269 276 276 244 214 198 192 191 190 188 185 180 171 171 176 179 177 172 167 165 165 158 151 149 140
311 310 309 307 305 304 303 304 306 307 309 310 310 309 307 305 303 301 300 299 298 296 295 294 293 291 287 284 280 277 274 272 270 267 265 264 261 258 253 249 247 246 245 243 242 243 243 242 240 238 234 231 231 233 236 240 242 238 237 239 242 249 257 271 274 258 236 212 199 195 193 193 193 189 182 174 173 176 185 184 173 170 169 168 164 156 150 144
308 308 306 305 304 303 303 304 306 309 310 311 311 310 308 307 306 305 304 303 302 300 300 299 297 294 290 287 284 281 279 276 273 270 267 265 262 260 256 251 247 245 244 242 241 240 241 241 242 240 235 231 229 230 233 236 241 239 235 236 237 244 253 265 267 251 236 217 203 194 190 194 196 189 180 177 180 180 184 186 177 176 174 171 169 160 153 147
306 305 304 303 302 303 304 305 308 310 312 312 312 311 310 309 308 308 307 306 304 303 302 301 299 297 294 292 290 287 283 280 277 273 268 264 261 259 257 254 250 246 244 243 241 238 238 239 240 240 236 231 228 228 228 228 234 235 233 233 233 238 247 256 256 252 244 222 205 193 191 195 193 189 184 182 188 191 188 184 182 184 179 175 172 162 156 152
304 303 301 301 301 303 304 306 309 312 313 314 313 311 311 311 310 310 309 307 306 305 305 304 302 300 298 295 292 288 284 281 278 275 270 265 261 257 254 252 249 247 245 243 240 238 236 236 235 235 234 231 228 227 225 224 229 233 230 229 228 233 242 251 249 253 254 222 202 192 192 192 189 191 192 186 188 197 195 186 185 190 185 181 175 166 160 155
304 302 301 300 301 303 305 308 311 314 315 314 313 313 312 313 312 311 310 309 309 308 307 306 304 302 299 296 292 289 285 281 277 275 272 266 260 255 251 249 247 246 246 244 240 237 235 234 233 232 229 227 227 226 225 224 226 228 226 223 223 227 234 242 240 239 243 220 201 192 189 189 191 194 193 192 190 194 196 188 189 193 189 187 181 172 166 161
306 303 301 301 302 304 307 310 313 315 316 314 314 314 314 314 314 313 313 313 312 311 309 307 305 302 299 296 293 289 285 279 274 271 268 264 258 254 252 250 248 247 246 244 240 236 233 232 231 229 225 223 224 226 227 224 223 223 221 219 220 223 227 229 226 224 224 217 205 194 190 194 197 195 192 194 193 191 191 191 195 196 189 190 188 179 170 166
308 305 303 303 304 307 309 312 315 316 316 315 315 315 316 316 315 315 316 316 315 313 311 309 307 304 301 298 293 288 283 277 271 265 261 258 254 251 250 249 249 248 247 245 241 235 232 231 230 227 224 221 221 224 225 223 222 222 220 218 218 220 223 224 222 221 221 218 210 200 198 202 201 198 196 195 194 191 191 193 200 201 193 192 195 185 171 167
311 308 306 306 308 310 312 315 317 317 316 316 317 318 318 317 316 318 319 318 317 315 312 310 309 307 305 301 297 293 287 279 270 260 254 250 248 246 246 247 248 249 246 243 240 235 231 230 228 224 218 213 215 220 223 222 220 219 219 217 218 219 218 223 223 216 219 219 215 210 208 208 206 205 202 196 194 191 193 198 201 205 199 194 200 192 172 167
315 312 310 311 312 314 316 317 318 318 317 317 319 320 320 320 321 322 322 320 319 316 314 313 313 311 309 306 303 301 296 286 270 258 250 246 244 242 242 243 245 246 244 240 238 236 233 230 225 217 210 207 210 217 219 219 218 216 215 216 218 218 214 220 223 209 206 212 215 218 216 216 216 213 206 198 195 188 191 200 201 204 203 198 204 197 174 165
320 317 315 316 317 317 318 320 319 319 319 319 322 324 324 324 324 325 323 321 321 320 320 321 321 319 315 311 309 307 303 297 279 259 248 241 238 236 236 237 240 242 241 240 238 237 233 224 215 210 206 204 208 215 216 214 215 214 213 214 216 217 212 214 220 213 209 212 216 220 220 221 221 217 211 201 197 192 190 199 200 201 203 200 205 200 177 163
324 321 320 321 321 320 321 322 321 321 321 324 328 328 326 326 327 326 324 324 325 326 327 329 328 325 321 316 314 313 310 306 292 268 249 239 235 234 234 233 234 237 238 237 235 233 225 211 209 208 203 203 207 213 214 211 211 212 213 214 214 216 213 213 218 218 219 222 222 221 221 221 217 215 215 205 201 196 192 200 201 200 202 200 203 198 180 167
328 325 324 325 323 324 324 324 324 323 325 329 331 330 329 329 328 326 325 327 329 329 330 330 329 327 324 319 317 317 314 306 297 277 252 238 233 231 231 230 229 230 231 231 228 222 212 207 209 208 202 202 205 209 210 207 206 208 213 215 214 215 215 216 219 219 221 229 230 225 224 223 215 211 213 207 205 201 196 201 201 201 206 205 205 197 183 175
331 329 328 327 326 327 327 326 327 327 329 332 333 332 331 330 329 327 328 330 330 328 329 329 326 325 322 319 318 317 310 299 289 275 255 239 230 226 227 227 223 221 223 223 220 210 205 207 210 208 203 202 205 207 206 204 203 206 212 215 214 214 217 221 223 222 224 227 227 224 227 229 220 212 211 207 207 206 201 200 199 202 209 213 211 200 186 183
333 331 330 329 329 331 330 330 330 329 332 334 334 333 331 331 331 329 330 330 327 325 324 323 321 321 319 318 317 312 305 293 277 263 252 240 231 224 224 223 217 215 215 215 211 202 203 209 210 209 205 204 207 208 205 203 201 204 211 214 214 214 215 221 223 224 228 226 222 224 230 237 228 214 212 209 208 207 202 198 198 199 205 214 214 204 190 188
334 332 331 330 332 334 333 333 332 332 335 335 334 333 334 335 333 333 331 326 325 324 321 320 319 318 317 313 309 303 299 292 274 253 242 237 229 220 218 216 212 211 209 211 207 197 202 210 209 208 207 206 208 209 207 205 202 205 212 214 216 216 215 219 222 223 229 229 228 231 233 240 235 217 212 208 206 207 202 197 198 196 199 210 213 206 195 193
336 333 333 332 334 335 335 335 334 334 336 336 334 335 337 337 334 334 330 323 326 325 321 322 320 317 315 310 302 291 285 282 272 253 237 231 224 219 216 212 209 207 205 208 204 198 203 208 208 208 206 205 207 206 206 207 203 205 213 215 217 218 218 221 223 224 228 230 231 236 237 241 245 224 213 209 209 210 205 198 198 195 196 205 211 207 199 197
338 334 334 334 335 336 337 337 335 335 337 336 336 336 337 335 332 330 325 323 325 321 319 321 319 315 311 307 302 286 276 268 261 250 235 227 220 218 220 217 214 208 204 203 202 203 207 209 209 209 205 203 205 203 204 206 202 203 211 215 217 218 220 223 226 227 228 229 232 236 241 242 245 242 218 213 216 216 209 203 198 195 195 201 208 209 202 198
339 337 336 335 334 336 337 337 335 335 337 336 335 336 334 331 328 326 323 324 322 316 316 318 317 312 305 302 301 287 279 268 258 250 240 231 220 217 220 222 222 214 203 200 204 208 210 211 211 210 205 203 204 204 204 204 200 201 208 214 217 218 222 224 226 229 229 231 234 232 237 241 240 245 232 219 221 217 211 209 203 196 195 198 205 209 204 199
338 338 338 334 333 336 337 336 334 334 337 336 334 334 332 328 326 324 321 323 320 315 316 319 319 307 292 294 301 291 283 276 265 252 251 244 228 220 217 218 220 210 194 196 208 211 211 212 213 209 205 204 204 206 206 202 199 201 207 212 215 217 221 225 225 227 229 234 238 233 234 241 239 238 237 233 228 217 211 213 208 199 196 197 204 210 207 201
335 337 338 334 332 335 335 334 333 333 335 334 332 333 330 326 324 319 316 319 317 315 318 321 322 309 283 285 310 290 279 281 272 251 253 255 239 224 218 216 211 197 185 193 207 211 210 211 212 208 205 204 205 205 203 199 198 199 204 209 212 214 218 223 222 223 227 234 240 236 234 237 237 235 235 240 241 221 212 213 211 202 194 195 202 208 210 205
333 333 335 333 331 333 333 332 331 331 332 331 330 331 327 324 321 315 313 315 314 315 317 317 319 311 282 265 323 300 286 287 277 254 243 248 238 224 217 217 210 196 186 193 204 207 206 208 208 207 207 207 207 206 203 198 197 200 204 208 211 214 219 223 221 220 225 232 238 239 235 233 232 235 235 238 246 230 213 211 212 206 195 192 198 205 210 207
332 331 331 330 329 330 331 329 328 328 327 327 327 325 323 321 317 312 311 313 315 316 316 314 317 315 289 241 299 327 315 306 293 282 260 241 233 221 215 214 207 197 190 193 200 200 199 204 205 205 207 209 209 209 204 198 197 201 205 207 211 214 216 219 219 220 224 230 237 239 237 232 230 232 234 237 246 239 218 210 210 209 201 194 196 200 205 206
331 329 327 326 327 328 328 326 325 324 322 322 321 319 319 316 312 310 310 311 314 315 314 313 313 313 289 239 261 347 337 320 303 287 267 242 230 218 214 211 202 196 192 193 198 197 195 198 203 206 207 208 207 203 197 194 196 201 203 202 208 214 217 218 218 221 224 228 235 239 236 235 233 231 231 236 243 243 223 211 209 211 207 201 198 198 200 204
329 328 325 323 324 324 324 323 322 320 318 317 315 316 315 310 308 308 307 309 311 311 311 311 309 309 291 246 265 10 355 333 320 281 250 235 227 218 213 208 200 195 194 195 198 198 195 196 201 205 207 210 207 197 190 192 196 201 202 202 207 215 220 223 222 224 229 232 236 239 236 236 236 233 234 238 240 243 229 213 212 214 212 206 201 199 200 202
327 326 325 321 319 320 322 321 319 318 317 314 312 312 310 306 305 303 303 307 307 307 306 303 301 300 295 277 281 356 344 315 318 300 259 233 224 219 213 207 200 196 195 198 201 200 196 197 202 204 205 210 208 197 190 193 196 200 202 205 212 216 219 223 223 222 228 232 234 235 232 233 235 233 235 239 241 240 228 213 213 216 216 212 204 199 200 201
323 324 324 318 315 317 319 319 317 315 314 310 307 307 302 299 298 297 299 301 303 307 304 294 285 283 287 290 290 314 318 292 294 299 276 243 228 222 216 210 202 198 198 200 203 201 196 198 203 202 200 202 201 197 195 196 196 197 200 203 211 216 217 220 221 217 220 225 227 225 220 223 231 228 229 234 240 236 220 209 212 214 216 217 211 200 198 202
319 321 321 316 312 313 317 317 315 312 311 307 304 303 294 287 288 290 293 296 300 304 299 290 278 272 279 285 286 308 325 298 288 295 287 256 236 226 220 214 205 200 201 203 205 203 197 197 202 199 196 196 199 199 199 200 199 198 200 203 207 210 208 210 213 210 212 220 220 216 205 203 220 223 221 228 234 232 215 206 209 213 212 214 214 205 198 200
315 317 316 313 311 311 313 315 312 310 308 304 302 302 294 284 281 282 289 295 299 297 292 290 285 278 280 281 283 298 307 306 305 306 306 274 237 227 224 221 211 204 204 206 208 205 199 199 202 197 195 197 201 205 203 202 205 204 204 205 207 207 203 203 209 211 212 219 221 223 220 203 207 224 220 224 227 224 217 210 210 215 210 207 211 209 198 197
311 312 312 310 310 310 310 312 311 307 305 306 308 307 299 290 284 280 285 293 295 291 286 288 286 277 275 275 282 296 292 293 301 306 313 288 233 225 227 226 217 210 208 208 210 207 202 203 203 197 196 197 200 205 204 203 208 208 206 204 202 201 200 197 201 209 214 220 224 232 237 222 215 235 230 227 226 219 218 220 218 221 212 201 205 206 197 193
308 308 308 308 308 307 307 309 307 304 306 314 315 307 297 290 285 281 283 287 287 282 275 274 276 272 274 277 281 289 284 286 294 300 313 295 230 222 227 229 223 216 211 210 211 209 204 206 208 201 197 199 200 201 202 204 210 208 205 203 195 189 189 187 190 200 205 211 221 232 240 234 230 247 253 245 238 225 218 223 227 230 217 200 198 200 195 192
307 304 303 304 303 303 302 303 303 302 309 317 311 300 292 285 283 283 281 281 280 275 267 264 271 274 280 284 283 282 280 288 295 297 315 302 236 225 228 231 227 220 214 211 212 211 206 208 214 207 199 201 201 198 198 202 208 207 205 203 191 180 177 180 188 196 198 202 213 225 236 239 239 249 261 262 257 242 229 226 228 231 223 203 197 196 193 192
305 301 299 300 299 299 297 297 298 301 307 312 301 293 287 281 280 280 277 276 276 276 276 275 273 270 272 277 278 276 276 283 289 293 308 303 254 238 234 232 230 224 218 214 211 213 211 211 216 211 199 200 199 195 198 202 204 205 205 203 192 180 176 181 187 193 200 203 210 219 228 235 240 249 258 262 263 257 244 237 236 235 226 208 199 197 194 192
302 298 296 296 297 296 294 293 295 297 302 301 292 289 285 279 278 278 275 276 275 276 280 279 273 271 271 273 270 267 269 271 274 282 286 290 301 264 239 231 230 225 221 218 214 215 215 214 218 213 198 195 196 197 205 208 204 202 199 196 190 178 176 184 186 186 192 196 201 211 217 223 233 241 252 260 266 269 258 249 249 242 228 211 202 199 197 194
299 296 293 293 294 293 291 290 292 294 295 291 285 288 284 275 274 275 273 272 271 272 276 276 275 276 278 277 269 259 258 264 270 282 288 292 351 355 240 229 229 226 222 222 220 220 220 217 219 215 199 194 199 202 207 211 206 203 200 195 189 181 182 188 188 183 184 188 194 201 206 211 221 228 240 257 267 275 267 258 260 247 225 211 203 201 200 198
298 294 289 288 289 289 288 286 286 288 286 282 281 283 281 274 272 270 266 266 268 272 274 276 276 272 271 276 271 255 248 256 268 283 297 305 328 4 288 228 231 232 229 229 228 226 223 222 222 214 198 195 202 205 206 210 209 209 207 201 195 192 193 192 188 183 182 187 193 198 203 210 215 218 228 248 259 265 263 262 267 245 219 206 199 198 200 199
297 293 286 284 284 283 283 281 280 282 280 277 278 281 281 278 274 269 264 261 264 269 268 265 265 261 258 260 259 250 242 245 256 267 280 293 300 304 306 263 236 235 234 236 237 232 226 225 223 211 196 196 204 205 205 208 209 212 210 204 199 198 195 190 187 185 184 185 190 198 208 214 216 214 217 232 247 254 258 260 253 217 198 193 191 194 197 197
298 292 285 282 281 278 276 275 276 278 277 275 277 279 280 278 272 269 268 259 253 259 262 255 252 254 249 239 240 247 243 237 242 252 261 268 276 286 294 301 309 308 248 237 238 238 230 225 223 215 202 203 208 208 207 206 205 208 208 202 198 197 194 189 188 189 188 187 190 200 213 218 218 215 215 220 234 245 254 261 238 187 173 179 185 191 194 192
299 293 286 282 279 275 273 272 271 273 275 275 274 274 275 273 267 268 273 268 257 254 257 257 251 250 248 237 230 237 238 233 234 239 246 248 253 262 274 289 305 323 345 251 238 240 232 223 220 218 212 210 212 214 216 212 203 202 204 200 195 195 195 194 192 193 194 193 194 202 215 222 222 222 221 220 227 238 245 259 247 203 166 170 179 186 189 190
299 293 287 284 280 275 272 269 268 270 273 274 270 268 269 267 266 267 271 274 272 264 260 258 247 243 243 237 234 235 234 235 234 234 236 237 239 246 251 268 290 301 310 326 246 240 232 222 218 218 217 214 211 212 215 209 192 187 196 196 193 194 198 201 199 199 200 201 205 212 219 223 225 228 230 229 233 238 241 245 246 231 199 180 180 186 193 199
295 291 288 287 284 277 271 268 266 267 270 271 267 265 265 263 263 266 266 266 271 267 261 258 245 237 236 233 235 239 238 239 237 233 233 233 234 240 241 247 266 282 288 292 300 228 206 215 218 220 219 214 210 207 199 194 186 175 185 190 191 194 200 205 206 206 208 211 217 224 227 226 226 228 230 234 242 246 244 241 243 243 231 213 202 202 207 213
Height
5887 5886 5886 5885 5885 5884 5884 5883 5883 5882 5881 5881 5880 5879 5879 5878 5878 5877 5877 5876 5876 5875 5875 5875 5875 5875 5875 5875 5875 5875 5875 5875 5875 5875 5875 5875 5875 5875 5876 5876 5877 5877 5878 5879 5880 5880 5881 5881 5882 5882 5882 5882 5882 5882 5883 5883 5884 5885 5885 5885 5885 5884 5884 5885 5885 5885 5886 5889 5890 5891 5892 5893 5893 5894 5893 5894 5895 5896 5896 5895 5896 5897 5898 5898 5898 5899 5899 5899
5886 5885 5885 5884 5883 5883 5882 5882 5881 5881 5880 5879 5879 5878 5877 5877 5876 5876 5875 5875 5874 5874 5874 5873 5873 5873 5873 5873 5873 5873 5873 5873 5874 5874 5874 5874 5874 5874 5875 5875 5875 5876 5876 5878 5879 5879 5880 5881 5881 5882 5882 5881 5881 5881 5882 5883 5884 5884 5884 5884 5884 5883 5883 5883 5883 5883 5885 5887 5889 5890 5892 5892 5893 5893 5893 5894 5895 5896 5896 5895 5895 5897 5897 5898 5898 5899 5899 5899
5885 5884 5884 5883 5882 5882 5881 5881 5880 5879 5879 5878 5877 5876 5876 5875 5874 5874 5873 5873 5872 5872 5872 5871 5871 5871 5871 5871 5871 5872 5872 5872 5872 5872 5872 5873 5873 5873 5873 5874 5874 5874 5875 5876 5877 5878 5880 5880 5880 5881 5881 5880 5880 5880 5881 5882 5883 5884 5884 5884 5883 5883 5883 5881 5880 5881 5883 5885 5888 5889 5891 5892 5893 5893 5893 5895 5895 5896 5897 5896 5896 5897 5897 5897 5898 5898 5899 5899
5884 5883 5882 5882 5881 5881 5880 5879 5878 5877 5877 5876 5876 5875 5874 5873 5873 5872 5871 5871 5870 5870 5870 5869 5869 5869 5869 5869 5869 5870 5870 5870 5870 5871 5871 5871 5871 5871 5872 5872 5873 5873 5874 5874 5875 5877 5879 5879 5879 5880 5880 5879 5879 5880 5881 5882 5883 5883 5883 5883 5883 5882 5881 5879 5878 5879 5881 5884 5887 5889 5890 5892 5892 5893 5894 5895 5895 5896 5897 5898 5897 5897 5897 5897 5898 5898 5899 5900
5882 5882 5881 5881 5880 5879 5879 5878 5877 5876 5875 5874 5874 5873 5872 5872 5871 5870 5870 5869 5868 5868 5868 5867 5867 5867 5867 5867 5868 5868 5868 5868 5868 5869 5869 5869 5869 5870 5870 5870 5871 5872 5872 5873 5874 5876 5877 5878 5878 5878 5878 5878 5878 5879 5880 5881 5882 5882 5883 5883 5883 5882 5881 5879 5877 5878 5881 5884 5887 5888 5890 5891 5892 5893 5894 5895 5895 5896 5897 5898 5898 5898 5898 5897 5898 5898 5899 5900
5881 5880 5879 5879 5878 5878 5877 5876 5875 5874 5874 5873 5872 5871 5870 5870 5869 5868 5868 5867 5866 5866 5865 5865 5865 5865 5865 5865 5866 5866 5866 5866 5866 5867 5867 5867 5867 5868 5868 5868 5869 5870 5871 5871 5872 5874 5875 5876 5877 5877 5877 5877 5877 5878 5879 5880 5881 5881 5881 5882 5883 5883 5883 5881 5879 5881 5883 5885 5887 5888 5890 5891 5891 5893 5895 5895 5895 5896 5897 5898 5898 5899 5899 5898 5898 5898 5899 5900
5880 5879 5878 5877 5876 5876 5875 5874 5873 5873 5872 5871 5870 5869 5868 5867 5867 5866 5865 5865 5864 5864 5863 5863 5863 5863 5863 5863 5863 5864 5864 5864 5864 5864 5864 5865 5865 5865 5865 5866 5867 5868 5869 5870 5871 5872 5873 5875 5876 5876 5875 5875 5875 5876 5877 5879 5880 5880 5880 5882 5883 5884 5884 5883 5882 5883 5885 5886 5887 5889 5889 5890 5891 5893 5895 5895 5895 5895 5897 5899 5898 5899 5899 5899 5899 5899 5899 5900
5879 5878 5877 5875 5875 5874 5873 5872 5871 5871 5870 5869 5868 5867 5866 5865 5864 5864 5863 5863 5862 5862 5861 5861 5861 5861 5861 5861 5861 5861 5861 5861 5861 5861 5862 5862 5862 5862 5863 5864 5864 5865 5866 5868 5869 5870 5872 5873 5874 5874 5873 5873 5874 5875 5876 5878 5879 5879 5880 5881 5883 5884 5884 5884 5884 5884 5885 5886 5888 5889 5889 5890 5892 5893 5894 5895 5895 5895 5897 5899 5899 5899 5899 5899 5899 5899 5899 5901
5878 5876 5875 5874 5873 5872 5871 5870 5869 5869 5868 5867 5865 5865 5864 5863 5862 5861 5861 5860 5860 5859 5859 5859 5859 5859 5859 5858 5858 5858 5858 5858 5858 5858 5859 5859 5859 5860 5860 5861 5862 5863 5864 5866 5867 5868 5869 5870 5871 5871 5871 5872 5873 5874 5876 5877 5878 5879 5879 5880 5882 5883 5883 5883 5883 5884 5885 5886 5887 5889 5890 5891 5892 5893 5894 5895 5894 5895 5897 5899 5899 5898 5899 5899 5900 5900 5900 5901
5876 5875 5874 5873 5872 5870 5869 5868 5867 5867 5866 5864 5863 5862 5861 5861 5860 5859 5859 5858 5858 5857 5857 5857 5856 5856 5856 5856 5856 5855 5855 5855 5855 5855 5856 5856 5856 5857 5857 5858 5859 5860 5861 5863 5864 5865 5865 5866 5867 5868 5870 5871 5872 5874 5875 5876 5877 5878 5879 5880 5881 5882 5883 5883 5883 5884 5885 5885 5886 5888 5890 5891 5892 5893 5894 5895 5895 5896 5897 5898 5899 5899 5899 5899 5900 5900 5900 5901
5875 5874 5872 5871 5870 5869 5867 5866 5866 5864 5863 5862 5861 5860 5859 5858 5857 5857 5856 5856 5855 5855 5854 5854 5854 5854 5853 5853 5853 5852 5852 5852 5852 5852 5852 5853 5853 5854 5854 5855 5856 5857 5858 5860 5861 5861 5861 5863 5865 5867 5869 5870 5871 5872 5874 5874 5876 5878 5879 5880 5880 5880 5881 5882 5883 5884 5884 5884 5886 5888 5889 5890 5892 5893 5894 5894 5894 5896 5897 5898 5899 5899 5899 5899 5900 5900 5901 5901
5874 5872 5871 5869 5868 5867 5866 5865 5864 5862 5861 5860 5859 5858 5857 5856 5855 5854 5854 5853 5853 5852 5852 5851 5851 5851 5851 5851 5850 5849 5849 5849 5849 5849 5849 5849 5850 5851 5851 5852 5852 5854 5855 5856 5857 5858 5859 5861 5863 5865 5867 5869 5870 5871 5872 5873 5875 5877 5878 5879 5879 5879 5880 5881 5882 5883 5882 5883 5885 5887 5888 5889 5891 5892 5893 5894 5894 5895 5897 5898 5899 5899 5899 5899 5900 5901 5901 5902
5872 5870 5869 5867 5866 5865 5864 5863 5862 5860 5859 5858 5857 5856 5855 5854 5853 5852 5851 5851 5850 5850 5849 5849 5849 5849 5848 5848 5847 5847 5846 5846 5846 5846 5846 5846 5846 5847 5848 5848 5849 5850 5851 5852 5854 5856 5857 5859 5860 5863 5865 5867 5869 5870 5871 5872 5874 5876 5877 5878 5878 5879 5879 5880 5881 5882 5881 5882 5884 5886 5888 5890 5891 5892 5893 5894 5894 5895 5897 5898 5899 5899 5899 5899 5900 5901 5901 5902
5870 5868 5867 5865 5864 5863 5862 5861 5860 5858 5857 5856 5855 5853 5852 5851 5850 5850 5849 5848 5848 5847 5847 5847 5846 5846 5845 5845 5844 5844 5843 5843 5843 5843 5843 5843 5843 5844 5844 5845 5845 5846 5847 5848 5851 5853 5855 5856 5859 5861 5864 5866 5867 5869 5870 5871 5873 5875 5876 5877 5878 5878 5878 5879 5881 5881 5881 5881 5883 5885 5888 5889 5890 5892 5893 5894 5895 5895 5896 5897 5898 5898 5898 5899 5900 5901 5902 5902
5868 5866 5865 5863 5862 5861 5860 5859 5858 5856 5855 5854 5852 5851 5850 5849 5848 5847 5847 5846 5845 5845 5844 5844 5843 5843 5842 5842 5841 5841 5840 5839 5839 5839 5840 5840 5840 5840 5841 5841 5842 5843 5843 5845 5848 5850 5852 5854 5857 5859 5862 5864 5866 5868 5869 5870 5872 5873 5875 5876 5877 5877 5878 5879 5880 5879 5880 5880 5882 5884 5886 5888 5889 5891 5892 5893 5895 5895 5895 5896 5897 5898 5898 5898 5899 5901 5902 5902
5866 5864 5863 5861 5860 5859 5858 5857 5856 5854 5853 5851 5850 5849 5848 5847 5846 5845 5844 5844 5843 5843 5842 5841 5840 5839 5839 5838 5838 5838 5837 5836 5835 5835 5836 5837 5837 5838 5838 5838 5839 5839 5840 5842 5845 5847 5849 5852 5854 5856 5860 5864 5865 5866 5867 5869 5871 5872 5873 5874 5875 5876 5877 5878 5879 5879 5878 5879 5881 5883 5885 5888 5889 5890 5892 5893 5895 5896 5896 5895 5896 5898 5898 5898 5899 5901 5901 5902
5863 5862 5860 5859 5858 5857 5856 5855 5854 5852 5851 5849 5848 5847 5846 5845 5844 5843 5843 5842 5841 5840 5839 5838 5837 5836 5835 5835 5835 5834 5834 5834 5832 5832 5832 5833 5834 5834 5834 5835 5835 5836 5837 5839 5842 5844 5847 5848 5850 5854 5858 5861 5863 5865 5867 5869 5870 5870 5871 5873 5874 5875 5875 5877 5878 5878 5878 5879 5881 5883 5885 5887 5888 5889 5891 5892 5894 5895 5896 5896 5896 5897 5898 5899 5899 5900 5901 5902
5861 5860 5858 5857 5856 5855 5854 5853 5851 5850 5849 5847 5846 5845 5844 5843 5842 5841 5841 5840 5839 5838 5836 5835 5834 5833 5832 5832 5831 5831 5831 5831 5830 5829 5829 5829 5831 5831 5831 5832 5833 5833 5834 5836 5839 5841 5843 5845 5847 5851 5855 5859 5862 5866 5867 5867 5867 5868 5870 5871 5872 5873 5874 5876 5878 5878 5878 5879 5880 5882 5884 5885 5886 5888 5889 5891 5893 5894 5895 5895 5896 5897 5898 5899 5899 5900 5901 5902
5859 5857 5856 5855 5854 5853 5852 5851 5849 5848 5846 5845 5844 5843 5842 5841 5840 5839 5839 5837 5836 5835 5834 5832 5831 5830 5829 5828 5828 5827 5827 5827 5827 5826 5825 5826 5827 5828 5829 5829 5830 5831 5832 5834 5836 5838 5840 5842 5844 5849 5854 5859 5863 5865 5864 5864 5865 5867 5869 5870 5871 5872 5873 5874 5877 5878 5878 5879 5880 5881 5883 5884 5886 5887 5888 5890 5892 5893 5894 5895 5897 5898 5899 5899 5900 5901 5902 5902
5857 5855 5854 5853 5852 5851 5850 5849 5847 5846 5844 5843 5842 5841 5840 5839 5838 5837 5836 5835 5834 5832 5831 5830 5829 5827 5826 5825 5824 5824 5824 5823 5823 5823 5823 5823 5824 5826 5826 5827 5828 5829 5830 5832 5833 5835 5837 5839 5844 5850 5855 5858 5860 5860 5859 5861 5864 5866 5868 5869 5870 5871 5872 5873 5875 5878 5878 5878 5880 5881 5882 5883 5884 5886 5887 5889 5891 5893 5895 5896 5897 5898 5898 5899 5900 5900 5901 5902
5855 5853 5852 5851 5850 5849 5848 5846 5845 5844 5842 5841 5840 5839 5838 5837 5836 5835 5833 5832 5831 5830 5829 5828 5826 5825 5823 5822 5821 5821 5821 5821 5820 5820 5820 5821 5822 5824 5824 5825 5826 5826 5828 5829 5831 5833 5836 5840 5845 5849 5852 5854 5855 5855 5856 5859 5862 5864 5866 5868 5869 5870 5872 5873 5874 5877 5878 5878 5879 5880 5881 5882 5883 5885 5886 5888 5890 5892 5894 5896 5897 5897 5898 5899 5900 5900 5901 5902
5853 5852 5851 5850 5848 5847 5846 5844 5843 5842 5840 5839 5838 5837 5836 5835 5834 5832 5831 5829 5828 5827 5826 5825 5824 5823 5821 5820 5819 5819 5818 5818 5818 5818 5818 5819 5820 5821 5822 5824 5824 5825 5826 5828 5830 5833 5836 5840 5844 5845 5847 5849 5851 5851 5854 5857 5860 5862 5864 5866 5868 5869 5870 5872 5872 5874 5876 5877 5878 5879 5880 5881 5882 5884 5885 5887 5890 5892 5894 5895 5896 5896 5897 5898 5899 5900 5901 5901
5852 5850 5849 5848 5847 5845 5844 5843 5841 5840 5839 5838 5836 5835 5834 5833 5831 5830 5829 5827 5825 5824 5823 5822 5821 5820 5819 5819 5818 5817 5817 5817 5816 5816 5816 5817 5818 5819 5821 5822 5823 5824 5825 5827 5829 5832 5835 5838 5839 5839 5842 5845 5847 5849 5852 5856 5858 5861 5863 5864 5866 5867 5868 5870 5870 5872 5875 5876 5877 5877 5878 5880 5881 5883 5885 5887 5889 5890 5892 5894 5895 5896 5896 5897 5898 5899 5900 5900
5850 5849 5848 5846 5845 5844 5842 5841 5839 5838 5837 5836 5835 5834 5833 5831 5830 5828 5827 5825 5823 5822 5821 5820 5819 5818 5817 5817 5816 5816 5816 5815 5815 5815 5815 5816 5816 5818 5819 5820 5821 5823 5824 5826 5828 5831 5833 5834 5834 5836 5839 5842 5843 5845 5849 5853 5857 5859 5861 5862 5864 5865 5867 5869 5869 5871 5873 5874 5875 5876 5876 5878 5880 5882 5884 5885 5887 5889 5891 5893 5894 5895 5896 5896 5897 5898 5899 5900
5849 5847 5846 5845 5843 5842 5840 5839 5838 5837 5836 5835 5834 5833 5832 5830 5829 5827 5825 5823 5822 5820 5819 5818 5817 5817 5816 5816 5815 5815 5815 5814 5814 5814 5814 5814 5815 5816 5817 5819 5820 5821 5823 5825 5827 5829 5830 5831 5832 5834 5837 5840 5841 5842 5846 5851 5854 5857 5858 5860 5862 5864 5866 5867 5868 5869 5871 5872 5874 5874 5874 5876 5878 5880 5882 5884 5885 5887 5889 5892 5893 5895 5896 5897 5898 5898 5899 5900
5848 5846 5845 5843 5842 5840 5839 5838 5837 5836 5834 5833 5832 5831 5830 5829 5827 5826 5824 5823 5821 5820 5819 5818 5817 5816 5815 5815 5814 5814 5813 5813 5813 5813 5813 5814 5814 5815 5816 5818 5819 5820 5821 5823 5825 5827 5828 5829 5830 5832 5835 5837 5839 5841 5844 5848 5852 5855 5856 5857 5859 5861 5863 5864 5866 5868 5869 5871 5872 5872 5873 5874 5876 5878 5880 5882 5883 5885 5888 5890 5892 5893 5896 5898 5897 5897 5899 5900
5847 5845 5844 5842 5841 5839 5838 5836 5835 5834 5833 5832 5831 5830 5829 5827 5826 5825 5823 5822 5821 5819 5818 5818 5817 5816 5815 5814 5814 5813 5812 5812 5812 5812 5813 5813 5814 5814 5815 5816 5817 5818 5820 5821 5823 5825 5825 5826 5828 5831 5833 5835 5838 5842 5845 5847 5850 5853 5854 5855 5858 5859 5861 5863 5865 5867 5868 5870 5871 5871 5872 5872 5874 5876 5878 5880 5881 5883 5886 5889 5890 5893 5895 5897 5897 5897 5899 5900
5846 5844 5843 5841 5839 5838 5836 5835 5834 5833 5832 5831 5830 5828 5827 5826 5824 5824 5822 5821 5820 5819 5817 5817 5816 5815 5814 5813 5812 5812 5811 5811 5812 5812 5812 5813 5813 5814 5814 5815 5815 5816 5818 5819 5821 5822 5823 5824 5826 5828 5830 5833 5838 5842 5844 5846 5849 5851 5852 5854 5856 5858 5860 5862 5864 5866 5867 5868 5870 5870 5871 5871 5872 5874 5876 5878 5879 5882 5885 5888 5890 5892 5895 5896 5897 5897 5898 5900
5845 5843 5842 5840 5838 5837 5835 5834 5833 5831 5830 5829 5828 5827 5825 5824 5823 5823 5822 5821 5820 5818 5817 5816 5815 5814 5813 5812 5812 5811 5810 5810 5811 5811 5812 5812 5812 5813 5814 5814 5815 5815 5817 5819 5820 5821 5822 5823 5825 5826 5830 5834 5838 5841 5841 5843 5846 5849 5850 5852 5855 5857 5859 5861 5863 5864 5865 5867 5868 5868 5869 5870 5871 5873 5873 5876 5878 5881 5884 5887 5889 5891 5894 5895 5896 5897 5898 5899
5844 5843 5841 5839 5837 5836 5834 5833 5832 5830 5829 5828 5827 5826 5824 5823 5823 5822 5821 5821 5819 5818 5817 5816 5815 5814 5813 5812 5811 5811 5810 5809 5810 5810 5811 5812 5812 5812 5813 5814 5815 5816 5817 5818 5819 5820 5821 5822 5824 5827 5831 5834 5836 5838 5838 5840 5844 5846 5848 5851 5853 5856 5857 5859 5861 5863 5864 5866 5866 5867 5868 5869 5870 5872 5873 5875 5878 5881 5883 5885 5887 5890 5892 5894 5895 5896 5898 5899
5843 5842 5840 5838 5836 5835 5833 5832 5830 5829 5828 5826 5825 5824 5824 5823 5822 5821 5820 5820 5819 5818 5817 5816 5815 5814 5813 5812 5811 5811 5810 5809 5810 5810 5810 5811 5811 5811 5812 5813 5814 5816 5817 5818 5819 5820 5821 5822 5824 5828 5831 5833 5834 5834 5836 5839 5842 5844 5846 5849 5851 5854 5856 5858 5860 5862 5863 5864 5864 5866 5867 5867 5869 5871 5873 5874 5876 5878 5881 5883 5886 5889 5891 5893 5895 5896 5897 5898
5842 5840 5839 5837 5835 5834 5832 5831 5829 5828 5826 5825 5824 5823 5822 5821 5820 5820 5819 5819 5818 5817 5816 5815 5814 5813 5812 5812 5811 5811 5810 5810 5810 5809 5810 5810 5811 5811 5812 5813 5814 5815 5816 5817 5818 5819 5820 5822 5825 5828 5830 5830 5831 5831 5834 5837 5840 5843 5845 5847 5850 5853 5856 5858 5859 5860 5862 5862 5864 5865 5865 5867 5868 5869 5871 5873 5874 5876 5878 5881 5883 5886 5889 5892 5894 5896 5897 5897
5841 5839 5838 5836 5834 5833 5831 5830 5828 5827 5825 5824 5823 5822 5821 5820 5819 5818 5818 5818 5817 5816 5815 5814 5814 5813 5812 5812 5812 5810 5809 5809 5809 5809 5809 5809 5810 5810 5811 5812 5814 5814 5815 5816 5817 5819 5821 5822 5824 5827 5828 5829 5829 5831 5834 5837 5840 5842 5844 5847 5850 5853 5856 5857 5858 5859 5860 5861 5863 5864 5864 5866 5867 5867 5869 5872 5872 5873 5876 5878 5880 5883 5886 5890 5892 5894 5895 5896
5839 5838 5836 5835 5833 5831 5830 5829 5827 5826 5824 5823 5822 5821 5820 5819 5818 5817 5817 5816 5816 5815 5814 5814 5813 5812 5811 5812 5812 5810 5809 5809 5809 5809 5809 5809 5809 5810 5810 5812 5813 5814 5814 5815 5816 5818 5820 5822 5824 5825 5826 5827 5829 5832 5835 5838 5840 5842 5844 5848 5851 5853 5854 5856 5856 5858 5859 5861 5862 5863 5864 5865 5866 5866 5868 5870 5870 5871 5873 5875 5878 5880 5883 5886 5888 5890 5892 5894
5838 5836 5834 5833 5831 5830 5829 5827 5826 5824 5823 5822 5821 5820 5819 5818 5817 5817 5816 5816 5815 5814 5813 5813 5812 5811 5811 5811 5811 5810 5809 5808 5808 5808 5808 5808 5809 5809 5810 5811 5812 5813 5813 5814 5815 5817 5819 5821 5823 5824 5825 5827 5829 5832 5834 5837 5839 5841 5843 5847 5850 5851 5852 5854 5855 5856 5858 5860 5862 5863 5863 5864 5864 5866 5867 5868 5869 5870 5870 5872 5875 5877 5881 5883 5885 5887 5890 5892
5836 5834 5833 5831 5830 5829 5827 5826 5824 5823 5822 5821 5820 5819 5818 5817 5817 5816 5816 5815 5814 5813 5812 5812 5811 5811 5810 5810 5810 5810 5809 5808 5808 5808 5808 5808 5808 5809 5809 5810 5811 5812 5813 5814 5815 5816 5818 5820 5821 5822 5824 5826 5828 5831 5833 5835 5838 5840 5843 5846 5848 5849 5851 5853 5854 5856 5858 5860 5862 5862 5863 5863 5863 5864 5866 5866 5868 5868 5869 5870 5873 5875 5878 5881 5884 5887 5889 5891
5834 5833 5831 5830 5828 5827 5826 5824 5823 5822 5820 5819 5818 5818 5817 5816 5816 5815 5815 5814 5814 5813 5812 5811 5810 5810 5810 5810 5810 5810 5810 5809 5808 5808 5808 5808 5808 5808 5809 5810 5811 5812 5813 5814 5814 5816 5818 5819 5820 5821 5823 5825 5827 5830 5832 5834 5837 5839 5842 5845 5846 5847 5850 5852 5854 5856 5858 5860 5861 5862 5862 5862 5862 5863 5864 5865 5866 5867 5868 5869 5871 5874 5876 5879 5883 5886 5888 5890
5833 5831 5829 5828 5826 5825 5824 5823 5821 5820 5819 5818 5817 5816 5816 5815 5815 5814 5814 5813 5813 5812 5811 5810 5810 5809 5809 5809 5809 5810 5810 5809 5808 5808 5808 5808 5808 5808 5809 5809 5810 5811 5812 5812 5814 5815 5817 5818 5819 5820 5823 5824 5827 5829 5831 5833 5835 5837 5840 5842 5844 5846 5849 5851 5854 5856 5858 5859 5860 5860 5861 5861 5861 5862 5862 5864 5865 5866 5867 5868 5870 5872 5875 5878 5881 5884 5887 5888
5831 5829 5827 5826 5824 5823 5822 5821 5820 5818 5817 5816 5815 5815 5815 5814 5814 5813 5813 5812 5812 5811 5811 5810 5809 5808 5808 5809 5809 5809 5809 5809 5808 5808 5807 5807 5808 5808 5808 5808 5809 5810 5810 5811 5813 5814 5816 5817 5818 5820 5822 5824 5826 5828 5830 5832 5834 5836 5838 5839 5842 5844 5847 5850 5852 5854 5856 5857 5859 5860 5860 5860 5860 5860 5861 5862 5864 5865 5866 5867 5869 5870 5873 5877 5879 5882 5885 5887
5829 5827 5825 5824 5823 5822 5820 5819 5818 5817 5816 5815 5814 5813 5813 5813 5813 5812 5812 5811 5811 5810 5810 5809 5808 5808 5808 5808 5808 5808 5808 5808 5807 5807 5806 5806 5806 5806 5807 5807 5808 5808 5809 5810 5812 5813 5815 5816 5817 5819 5822 5824 5825 5828 5830 5832 5834 5837 5838 5839 5841 5843 5846 5848 5851 5853 5855 5857 5858 5858 5859 5859 5859 5859 5860 5861 5862 5863 5864 5865 5867 5869 5870 5873 5877 5880 5883 5886
5827 5825 5823 5822 5820 5820 5819 5817 5816 5815 5814 5813 5812 5812 5811 5811 5811 5811 5811 5810 5810 5809 5809 5808 5807 5807 5807 5807 5807 5808 5807 5807 5806 5806 5805 5804 5804 5805 5805 5806 5807 5807 5808 5810 5811 5813 5814 5815 5817 5819 5821 5823 5824 5826 5829 5831 5833 5835 5837 5837 5839 5842 5844 5847 5850 5852 5854 5856 5857 5857 5858 5858 5859 5859 5859 5860 5861 5862 5863 5864 5866 5867 5868 5870 5874 5877 5881 5884
5824 5823 5821 5820 5818 5817 5816 5815 5814 5813 5812 5812 5811 5811 5810 5810 5810 5810 5809 5809 5809 5808 5808 5807 5806 5806 5806 5806 5806 5806 5806 5806 5806 5805 5804 5803 5803 5803 5803 5804 5806 5806 5808 5809 5810 5812 5814 5815 5817 5819 5820 5822 5823 5825 5827 5829 5831 5833 5834 5835 5836 5839 5842 5845 5849 5851 5853 5854 5856 5856 5857 5857 5858 5858 5859 5860 5860 5861 5862 5863 5864 5865 5866 5867 5870 5874 5878 5881
5821 5820 5819 5818 5817 5816 5815 5814 5812 5811 5811 5810 5810 5809 5809 5808 5808 5808 5808 5808 5807 5807 5807 5807 5806 5806 5806 5805 5805 5805 5805 5805 5805 5805 5804 5803 5803 5803 5803 5804 5805 5806 5807 5808 5809 5811 5813 5815 5817 5818 5819 5822 5824 5825 5826 5827 5829 5831 5833 5834 5835 5837 5840 5844 5847 5849 5851 5853 5854 5855 5856 5857 5857 5858 5858 5859 5859 5860 5860 5861 5862 5863 5864 5865 5867 5870 5874 5878
5819 5817 5815 5815 5815 5814 5813 5812 5811 5810 5809 5809 5808 5808 5807 5807 5807 5807 5806 5806 5806 5806 5806 5806 5805 5805 5805 5804 5804 5804 5804 5804 5804 5804 5804 5804 5803 5802 5802 5803 5804 5805 5806 5807 5809 5811 5813 5815 5816 5817 5818 5821 5824 5825 5824 5825 5828 5830 5832 5834 5836 5837 5840 5843 5846 5849 5851 5852 5852 5853 5855 5856 5856 5857 5857 5858 5858 5858 5858 5859 5860 5861 5862 5863 5865 5868 5871 5875
5816 5814 5812 5811 5811 5811 5810 5809 5808 5807 5807 5806 5806 5806 5805 5805 5805 5806 5806 5805 5805 5805 5805 5805 5804 5804 5804 5803 5803 5803 5802 5802 5803 5803 5803 5803 5803 5801 5800 5802 5803 5804 5805 5807 5809 5811 5812 5814 5815 5817 5817 5819 5821 5823 5823 5825 5827 5829 5831 5834 5836 5838 5840 5842 5845 5848 5850 5850 5851 5852 5853 5854 5855 5855 5856 5857 5857 5857 5857 5857 5857 5858 5859 5861 5863 5866 5869 5873
5813 5812 5810 5808 5808 5808 5807 5807 5806 5805 5804 5804 5804 5804 5804 5804 5804 5804 5804 5804 5804 5804 5804 5803 5803 5803 5803 5803 5802 5802 5802 5801 5801 5802 5801 5801 5801 5800 5799 5800 5802 5803 5805 5807 5809 5810 5811 5812 5814 5816 5817 5818 5820 5822 5824 5825 5827 5829 5831 5833 5835 5838 5839 5841 5844 5846 5848 5849 5850 5851 5852 5853 5854 5855 5855 5856 5856 5856 5855 5855 5855 5854 5855 5857 5860 5864 5867 5871
5809 5809 5808 5806 5805 5805 5805 5804 5803 5802 5802 5802 5802 5802 5802 5802 5802 5802 5803 5803 5803 5802 5803 5803 5803 5802 5802 5802 5801 5801 5801 5801 5801 5801 5800 5800 5800 5800 5799 5800 5801 5803 5805 5806 5808 5810 5811 5812 5814 5816 5817 5818 5819 5821 5823 5825 5826 5828 5830 5832 5835 5837 5837 5839 5843 5845 5846 5848 5849 5850 5851 5852 5853 5854 5855 5855 5855 5855 5854 5854 5853 5852 5852 5854 5858 5862 5866 5870
5806 5806 5805 5804 5803 5803 5802 5802 5801 5801 5800 5800 5800 5800 5801 5801 5801 5800 5801 5802 5801 5801 5802 5802 5802 5801 5801 5801 5801 5800 5800 5800 5801 5801 5801 5800 5799 5799 5799 5800 5801 5803 5804 5805 5806 5808 5810 5811 5813 5815 5816 5816 5818 5819 5821 5823 5825 5826 5829 5831 5834 5835 5836 5839 5842 5844 5845 5847 5848 5850 5850 5851 5852 5854 5854 5854 5854 5854 5853 5853 5853 5852 5852 5853 5858 5862 5866 5869
5803 5803 5802 5802 5801 5800 5800 5800 5799 5798 5798 5798 5798 5799 5799 5800 5800 5799 5799 5800 5800 5800 5800 5801 5801 5800 5800 5800 5800 5799 5800 5800 5800 5800 5801 5801 5800 5799 5798 5798 5799 5801 5802 5803 5804 5806 5808 5809 5811 5814 5814 5815 5816 5817 5818 5821 5823 5824 5827 5830 5832 5834 5836 5838 5841 5842 5844 5846 5847 5849 5849 5850 5851 5853 5853 5854 5854 5854 5853 5853 5853 5853 5853 5855 5858 5862 5866 5869
5800 5799 5799 5799 5799 5798 5798 5798 5797 5797 5796 5796 5796 5797 5797 5798 5798 5798 5798 5798 5799 5799 5799 5800 5800 5800 5800 5800 5799 5799 5799 5799 5799 5799 5800 5800 5800 5799 5799 5798 5798 5799 5800 5801 5802 5804 5805 5807 5809 5811 5813 5814 5816 5817 5819 5820 5821 5821 5823 5827 5830 5832 5834 5836 5839 5841 5843 5845 5846 5848 5849 5849 5851 5852 5853 5853 5854 5854 5854 5854 5854 5854 5854 5856 5859 5862 5865 5868
5797 5797 5796 5796 5796 5795 5795 5795 5795 5795 5794 5795 5795 5795 5795 5795 5795 5796 5796 5796 5797 5798 5798 5798 5799 5799 5799 5799 5798 5798 5798 5798 5798 5798 5798 5799 5799 5799 5799 5799 5798 5798 5799 5800 5801 5803 5804 5805 5807 5809 5811 5814 5815 5816 5818 5820 5820 5818 5819 5824 5827 5830 5832 5835 5837 5839 5842 5844 5845 5847 5848 5849 5850 5851 5852 5853 5854 5854 5854 5854 5854 5854 5855 5857 5859 5861 5864 5867
5795 5794 5793 5793 5792 5792 5792 5792 5793 5792 5792 5793 5793 5792 5793 5793 5793 5794 5795 5795 5795 5796 5797 5797 5797 5798 5798 5798 5798 5797 5797 5796 5796 5797 5797 5797 5797 5797 5798 5799 5798 5798 5798 5798 5800 5801 5803 5805 5806 5807 5810 5813 5814 5813 5814 5817 5817 5816 5816 5820 5824 5828 5831 5833 5835 5838 5840 5842 5844 5845 5847 5849 5850 5851 5851 5852 5852 5853 5854 5854 5854 5855 5856 5858 5859 5861 5863 5864